星链-33989 (STARLINK-33989)

导读 | 豆包AI

STARLINK-33989是美国SpaceX星链互联网星座的卫星,于2025年5月13日发射升空,属于星链低轨卫星互联网项目的组成部分。星链项目旨在为全球提供高速低延迟宽带互联网服务,该卫星和其他同批卫星一同部署近地轨道,持续拓展星链网络的全球覆盖能力,服务个人、企业及军事等多领域场景。

基本信息
目录编号:
63929
目录名称:
STARLINK-33989
国际标识:
2025-098D
轨道中心:
EARTH
卫星名称:
星链-33989
卫星全名:
星链-33989 (STARLINK-33989)
卫星状态:
在轨 (已飞行305 天)
发射日期:
2025-05-13 UTC
国别 :
美国 (US)
星等 :
--
轨道信息
数据来源 国际轨道数据 AOE轨道数据
星历时间 2026-03-14T21:53:48+0800
8小时前
查看轨道信息
2026-03-11T04:00:00+0800
4天前
查看轨道信息
半长轴 6950.318km 6950.217km
偏心率 0.0002111 0.0002848
轨道倾角 69.999° 70.000°
近地点辐角 305.081° 270.347°
升交点赤经 262.176° 271.618°
平近点角 55.015° 51.242°
近地点 570.713km 570.1km
远地点 573.649km 574.06km
周期 96.110分钟 96.107分钟
每日圈数 14.982898 14.983225
详细信息
固有亮度:
5
最大亮度:
2.5
卫星平台:
Starlink V1.0
覆盖范围:
全球
运营商:
太空探索技术公司
运营商所在国:
美国
制造商(研发单位):
太空探索技术公司
制造商所在国:
美国
使用方式:
暂无
卫星简介
Starlink 计划是 SpaceX 推出的全球卫星互联网项目,通过发射低轨道卫星,为全球尤其是偏远地区提供高速、低延迟的互联网服务。自 2019 年起,Starlink 已部署数千颗卫星,旨在缩小全球数字鸿沟,推动互联网普及。该项目还为军事、航空等行业提供通信支持,带来广泛经济效益。
2D轨道图
3D轨道图
轨道高度分析图
轨道倾角分析图
轨道综合分析图
查看轨道综合分析图